When you browse on this site, cookies collect data to enhance your experience and personalize the content and advertising you see.
Visit our Privacy Policy to learn more. By continuing to use the site, you agree to this use of cookies and data.
EN

Hourly Weather Nuwejba

Today, 5 July, Sunday

Time Temperature Precipitation Wind Pressure Humidity
00:00 +24°C° 0 mm 3 mps 687 mmHg 36%
01:00 +23°C° 0 mm 2 mps 687 mmHg 37%
02:00 +21°C° 0 mm 2 mps 686 mmHg 38%
03:00 +21°C° 0 mm 2 mps 686 mmHg 38%
04:00 +20°C° 0 mm 2 mps 686 mmHg 38%
05:00 +20°C° 0 mm 2 mps 686 mmHg 39%
06:00 +23°C° 0 mm 2 mps 687 mmHg 33%
07:00 +26°C° 0 mm 3 mps 687 mmHg 27%
08:00 +29°C° 0 mm 3 mps 688 mmHg 21%
09:00 +31°C° 0 mm 3 mps 688 mmHg 18%
10:00 +33°C° 0 mm 4 mps 688 mmHg 15%
11:00 +35°C° 0 mm 4 mps 688 mmHg 12%
12:00 +36°C° 0 mm 4 mps 687 mmHg 11%
13:00 +37°C° 0 mm 4 mps 687 mmHg 10%
14:00 +37°C° 0 mm 5 mps 686 mmHg 9%
15:00 +37°C° 0 mm 5 mps 686 mmHg 10%
16:00 +38°C° 0 mm 6 mps 686 mmHg 10%
17:00 +36°C° 0 mm 7 mps 686 mmHg 11%
18:00 +34°C° 0 mm 7 mps 686 mmHg 18%
19:00 +30°C° 0 mm 7 mps 685 mmHg 25%
20:00 +28°C° 0 mm 8 mps 685 mmHg 32%
21:00 +26°C° 0 mm 6 mps 685 mmHg 37%
22:00 +25°C° 0 mm 5 mps 685 mmHg 42%
23:00 +23°C° 0 mm 4 mps 685 mmHg 47%

Tomorrow, 6 July, Monday

Time Temperature Precipitation Wind Pressure Humidity
00:00 +22°C° 0 mm 3 mps 685 mmHg 46%
01:00 +22°C° 0 mm 3 mps 685 mmHg 45%
02:00 +21°C° 0 mm 3 mps 684 mmHg 44%
03:00 +21°C° 0 mm 3 mps 684 mmHg 43%
04:00 +20°C° 0 mm 2 mps 684 mmHg 41%
05:00 +20°C° 0 mm 2 mps 684 mmHg 40%
06:00 +24°C° 0 mm 3 mps 685 mmHg 33%
07:00 +27°C° 0 mm 4 mps 685 mmHg 26%
08:00 +30°C° 0 mm 4 mps 686 mmHg 20%
09:00 +32°C° 0 mm 5 mps 686 mmHg 18%
10:00 +34°C° 0 mm 5 mps 686 mmHg 17%
11:00 +35°C° 0 mm 5 mps 686 mmHg 15%
12:00 +36°C° 0 mm 5 mps 686 mmHg 14%
13:00 +36°C° 0 mm 5 mps 686 mmHg 14%
14:00 +37°C° 0 mm 5 mps 686 mmHg 13%
15:00 +38°C° 0 mm 6 mps 685 mmHg 13%
16:00 +36°C° 0 mm 6 mps 685 mmHg 14%
17:00 +36°C° 0 mm 6 mps 685 mmHg 14%
18:00 +34°C° 0 mm 6 mps 685 mmHg 22%
19:00 +30°C° 0 mm 6 mps 685 mmHg 29%
20:00 +27°C° 0 mm 6 mps 685 mmHg 36%
21:00 +26°C° 0 mm 4 mps 685 mmHg 40%
22:00 +25°C° 0 mm 3 mps 685 mmHg 45%
23:00 +24°C° 0 mm 2 mps 685 mmHg 49%

Day after tomorrow, 7 July, Tuesday

Time Temperature Precipitation Wind Pressure Humidity
00:00 +23°C° 0 mm 2 mps 685 mmHg 51%
01:00 +21°C° 0 mm 2 mps 685 mmHg 53%
02:00 +21°C° 0 mm 2 mps 685 mmHg 56%
03:00 +21°C° 0 mm 2 mps 685 mmHg 53%
04:00 +20°C° 0 mm 2 mps 685 mmHg 51%
05:00 +20°C° 0 mm 2 mps 685 mmHg 48%
06:00 +24°C° 0 mm 2 mps 686 mmHg 39%
07:00 +27°C° 0 mm 2 mps 686 mmHg 30%
08:00 +30°C° 0 mm 2 mps 687 mmHg 21%
09:00 +33°C° 0 mm 3 mps 687 mmHg 17%
10:00 +34°C° 0 mm 3 mps 688 mmHg 14%
11:00 +36°C° 0 mm 4 mps 688 mmHg 10%
12:00 +36°C° 0 mm 5 mps 688 mmHg 9%
13:00 +37°C° 0 mm 5 mps 688 mmHg 9%
14:00 +38°C° 0 mm 6 mps 687 mmHg 8%
15:00 +38°C° 0 mm 6 mps 687 mmHg 8%
16:00 +36°C° 0 mm 6 mps 687 mmHg 9%
17:00 +36°C° 0 mm 6 mps 687 mmHg 9%
18:00 +34°C° 0 mm 6 mps 687 mmHg 12%
19:00 +30°C° 0 mm 5 mps 687 mmHg 15%
20:00 +28°C° 0 mm 5 mps 687 mmHg 19%
21:00 +26°C° 0 mm 4 mps 687 mmHg 22%
22:00 +25°C° 0 mm 3 mps 687 mmHg 26%
23:00 +23°C° 0 mm 1 mps 687 mmHg 29%

8 July, Wednesday

Time Temperature Precipitation Wind Pressure Humidity
00:00 +23°C° 0 mm 1 mps 686 mmHg 30%
01:00 +22°C° 0 mm 1 mps 686 mmHg 30%
02:00 +22°C° 0 mm 1 mps 686 mmHg 31%
03:00 +21°C° 0 mm 1 mps 686 mmHg 30%
04:00 +21°C° 0 mm 1 mps 686 mmHg 30%
05:00 +21°C° 0 mm 1 mps 686 mmHg 30%
06:00 +24°C° 0 mm 1 mps 687 mmHg 25%
07:00 +27°C° 0 mm 1 mps 688 mmHg 20%
08:00 +31°C° 0 mm 2 mps 689 mmHg 15%
09:00 +32°C° 0 mm 2 mps 689 mmHg 14%
10:00 +35°C° 0 mm 2 mps 689 mmHg 13%
11:00 +36°C° 0 mm 2 mps 689 mmHg 12%
12:00 +37°C° 0 mm 3 mps 689 mmHg 11%
13:00 +38°C° 0 mm 3 mps 689 mmHg 11%
14:00 +40°C° 0 mm 4 mps 688 mmHg 10%
15:00 +38°C° 0 mm 3 mps 688 mmHg 10%
16:00 +38°C° 0 mm 3 mps 688 mmHg 11%
17:00 +37°C° 0 mm 2 mps 688 mmHg 11%
18:00 +34°C° 0 mm 3 mps 688 mmHg 17%
19:00 +31°C° 0 mm 3 mps 688 mmHg 23%
20:00 +28°C° 0 mm 4 mps 688 mmHg 29%
21:00 +26°C° 0 mm 3 mps 688 mmHg 37%
22:00 +25°C° 0 mm 3 mps 688 mmHg 44%
23:00 +24°C° 0 mm 3 mps 688 mmHg 52%

9 July, Thursday

Time Temperature Precipitation Wind Pressure Humidity
00:00 +22°C° 0 mm 3 mps 687 mmHg 57%
01:00 +21°C° 0 mm 3 mps 687 mmHg 61%
02:00 +21°C° 0 mm 3 mps 687 mmHg 65%
03:00 +20°C° 0 mm 2 mps 687 mmHg 64%
04:00 +20°C° 0 mm 2 mps 687 mmHg 63%
05:00 +20°C° 0 mm 2 mps 687 mmHg 61%
06:00 +23°C° 0 mm 2 mps 687 mmHg 53%
07:00 +26°C° 0 mm 2 mps 688 mmHg 45%
08:00 +28°C° 0 mm 2 mps 688 mmHg 38%
09:00 +30°C° 0 mm 2 mps 688 mmHg 32%
10:00 +32°C° 0 mm 2 mps 688 mmHg 27%
11:00 +34°C° 0 mm 1 mps 688 mmHg 22%
12:00 +36°C° 0 mm 2 mps 688 mmHg 19%
13:00 +37°C° 0 mm 2 mps 688 mmHg 17%
14:00 +38°C° 0 mm 3 mps 688 mmHg 15%
15:00 +38°C° 0 mm 3 mps 687 mmHg 16%
16:00 +37°C° 0 mm 3 mps 687 mmHg 17%
17:00 +37°C° 0 mm 3 mps 687 mmHg 17%
18:00 +34°C° 0 mm 4 mps 687 mmHg 28%
19:00 +30°C° 0 mm 5 mps 687 mmHg 40%
20:00 +27°C° 0 mm 6 mps 687 mmHg 51%
21:00 +26°C° 0 mm 4 mps 686 mmHg 54%
22:00 +25°C° 0 mm 3 mps 686 mmHg 57%
23:00 +24°C° 0 mm 2 mps 686 mmHg 59%

10 July, Friday

Time Temperature Precipitation Wind Pressure Humidity
00:00 +23°C° 0 mm 2 mps 686 mmHg 60%
01:00 +21°C° 0 mm 2 mps 686 mmHg 60%
02:00 +21°C° 0 mm 2 mps 686 mmHg 61%
03:00 +20°C° 0 mm 2 mps 686 mmHg 63%
04:00 +20°C° 0 mm 2 mps 686 mmHg 65%
05:00 +20°C° 0 mm 2 mps 686 mmHg 67%
06:00 +23°C° 0 mm 2 mps 686 mmHg 61%
07:00 +25°C° 0 mm 2 mps 687 mmHg 54%
08:00 +27°C° 0 mm 2 mps 687 mmHg 48%
09:00 +29°C° 0 mm 2 mps 688 mmHg 41%
10:00 +31°C° 0 mm 2 mps 688 mmHg 34%
11:00 +34°C° 0 mm 2 mps 688 mmHg 28%
12:00 +35°C° 0 mm 2 mps 687 mmHg 25%
13:00 +37°C° 0 mm 2 mps 687 mmHg 21%
14:00 +38°C° 0 mm 2 mps 687 mmHg 18%
15:00 +37°C° 0 mm 3 mps 687 mmHg 19%
16:00 +37°C° 0 mm 3 mps 687 mmHg 20%
17:00 +37°C° 0 mm 3 mps 687 mmHg 21%
18:00 +34°C° 0 mm 4 mps 687 mmHg 25%
19:00 +32°C° 0 mm 4 mps 687 mmHg 28%
20:00 +29°C° 0 mm 5 mps 687 mmHg 32%
21:00 +27°C° 0 mm 4 mps 687 mmHg 45%
22:00 +26°C° 0 mm 3 mps 687 mmHg 57%
23:00 +24°C° 0 mm 2 mps 687 mmHg 70%
Show more